Location: Ribes
(44.4953°N, 4.2069°E)
Time: 14:28:20
(UTC+00:00)

Daily predictions for brighter satellites

Satellite Brightness Start Highest point End
(mag) Time Altitude Azimuth Time Altitude Azimuth Time Altitude Azimuth
USA 229 DEB 3.7 17:40:35 10° SW 17:47:07 89° WNW 17:54:02 10° NE
USA 229 3.7 17:40:41 10° SW 17:47:14 90° WNW 17:54:07 10° NE
Cosmos 1470 Rocket 4.3 17:45:12 10° SSE 17:49:00 30° E 17:52:50 10° NNE
STARLINK-54 4.4 17:46:02 10° W 17:49:55 45° NNW 17:53:48 10° NE
STARLINK-1025 3.9 17:46:53 10° WSW 17:50:03 45° NNW 17:53:15 10° NE
STARLINK-1057 3.8 17:46:10 10° SW 17:50:14 59° SE 17:54:19 10° ENE
STARLINK-77 4.4 17:47:28 10° W 17:51:22 46° NNW 17:55:16 10° NE
STARLINK-1017 3.9 17:48:33 10° W 17:51:43 44° NNW 17:54:55 10° NE
STARLINK-25 4.4 17:49:08 10° W 17:53:02 45° NNW 17:56:55 10° NE
Centaur D AC-28 4.4 17:39:03 10° WSW 17:53:43 27° SSW 17:58:27 10° SE
NOSS 3-1 (A) 3.3 17:48:59 10° SSW 17:54:23 67° ESE 18:00:37 10° NE
STARLINK-1034 3.7 17:51:06 10° SW 17:55:10 65° SE 17:59:17 10° ENE
Cosmos 1862 Rocket 3.8 17:52:05 10° N 17:56:15 44° ENE 18:00:25 10° SSE
STARLINK-79 4.5 17:52:29 10° W 17:56:20 44° NNW 18:00:13 10° NE
STARLINK-1048 4.1 17:53:40 10° W 17:56:49 41° NNW 17:59:59 10° NE
COSMO-SKYMED 1 2.6 17:52:37 10° NNE 17:57:00 84° ESE 18:01:20 10° SSW
STARLINK-52 3.5 17:53:57 10° NW 17:57:13 46° NNE 18:00:30 10° ESE
Okean-O 3.1 17:52:55 10° S 17:57:19 68° WSW 18:01:46 10° NNW
STARLINK-78 4.5 17:54:11 10° W 17:58:02 43° NNW 18:01:54 10° NE
STARLINK-1049 4.1 17:55:23 10° W 17:58:31 40° NNW 18:01:41 10° NE
Cosmos 1707 Rocket 3.8 17:54:11 10° N 17:58:39 78° W 18:03:07 10° S
STARLINK-60 3.2 17:56:28 10° WNW 17:59:46 73° SW 18:03:02 10° SE
STARLINK-1068 3.6 17:56:02 10° SW 18:00:08 70° SE 18:04:16 10° ENE
STARLINK-1051 4.1 17:57:09 10° W 18:00:18 39° NNW 18:03:26 10° NE
STARLINK-1028 4.2 17:57:32 10° W 18:00:41 39° NNW 18:03:50 10° NE
FALCON 9 DEB 3.2 17:58:04 10° NW 18:01:30 64° NNE 18:04:55 10° ESE
STARLINK-1021 4.2 17:59:19 10° W 18:02:27 38° NNW 18:05:36 10° NE
Cosmos 2369 Rocket 2.2 17:56:58 10° SSW 18:02:36 75° ESE 18:08:18 10° NNE
Cosmos 1812 2.7 17:59:49 10° N 18:03:43 81° E 18:07:34 10° S
Cosmos 921 Rocket 3.2 17:59:37 10° SSW 18:04:08 84° WNW 18:08:40 10° NNE
STARLINK-1019 4.2 18:01:06 10° W 18:04:14 37° NNW 18:07:22 10° NE
Ariane Rocket 3.9 18:00:15 10° ESE 18:04:31 28° ENE 18:08:47 10° N
STARLINK-1012 4.3 18:02:55 10° W 18:06:02 36° NNW 18:09:09 10° NE
Lacrosse 5 3.7 18:04:19 10° SE 18:06:28 13° ESE 18:08:21 10° E
Okean 1-7 4.3 18:06:19 10° NNE 18:09:32 20° ENE 18:12:44 10° ESE
STARLINK-1026 4.3 18:06:31 10° W 18:09:37 35° NNW 18:12:43 10° NE
STARLINK-1014 4.2 18:06:45 10° W 18:10:04 42° NNW 18:13:25 10° NE
STARLINK-1060 3.6 18:05:56 10° SW 18:10:05 82° SE 18:14:13 10° ENE
STARLINK-1013 4.4 18:08:22 10° W 18:11:27 34° NNW 18:14:33 10° NE
STARLINK-1009 4.4 18:10:11 10° W 18:13:15 33° NNW 18:16:20 10° NE
CZ-2D R/B 3.2 18:09:34 10° SSE 18:13:24 64° ENE 18:17:16 10° N
STARLINK-1030 3.6 18:10:57 10° SW 18:15:05 89° SSE 18:19:02 11° ENE
STARLINK-1015 4.4 18:12:02 10° W 18:15:06 33° NNW 18:18:10 10° NE
Cosmos 1833 4.4 18:10:51 10° NNW 18:16:32 54° ENE 18:22:07 10° SE
NOSS 2-3 (C) 3.6 18:15:04 10° SSW 18:19:20 78° SE 18:24:23 10° NE
STARLINK-1020 3.6 18:15:54 10° WSW 18:20:03 85° NNW 18:23:48 13° NE
SJ 16-02 2.6 18:18:22 10° N 18:21:50 22° ENE 18:23:52 16° E
STARLINK-1047 3.7 18:18:19 10° WSW 18:22:29 81° NW 18:26:11 13° NE
H-2A R/B 3.0 18:19:06 10° ESE 18:23:41 30° ENE 18:28:20 10° N
STARLINK-1052 3.7 18:20:54 10° WSW 18:25:03 80° NNW 18:28:36 14° NE
ARGOS 4.1 18:20:40 10° ESE 18:25:06 27° ENE 18:29:33 10° N
CSL-04 Rocket 3.8 18:22:34 10° SSE 18:28:07 87° WSW 18:33:38 10° NNW
Cosmos 2263 4.2 18:24:20 10° SSW 18:30:08 87° ESE 18:35:56 10° NNE
Cosmos 1346 Rocket 2.7 18:27:01 10° S 18:30:58 68° E 18:34:55 10° NNE
BREEZE-M DEB (TANK) 3.1 18:29:26 10° WNW 18:32:10 77° NNE 18:37:09 16° ESE
YAOGAN 1 3.2 18:30:24 10° S 18:34:40 60° W 18:38:58 10° NNW
STARLINK-1033 3.8 18:30:52 10° WSW 18:34:59 69° NNW 18:38:08 17° NE
STARLINK-1041 4.4 18:33:04 10° SSW 18:36:47 33° SE 18:38:25 24° E
Cosmos 1633 Rocket 4.4 18:34:32 10° SSW 18:38:40 42° WNW 18:42:49 10° N
Cosmos 1464 Rocket 4.2 18:33:02 10° SSE 18:39:04 48° E 18:45:11 10° NNE
Cosmos 44 Rocket 4.1 18:36:59 10° NNW 18:41:12 31° NE 18:42:58 24° E
OE (NEXTSAT) 4.4 18:37:51 10° W 18:41:21 68° N 18:42:51 31° E
STARLINK-1038 4.3 18:37:56 10° SSW 18:41:44 36° SE 18:43:12 27° E
STARLINK-1035 4.1 18:38:00 10° WSW 18:42:12 58° NNW 18:45:14 18° NE
CRYOSAT 2 4.4 18:38:27 10° S 18:43:21 83° W 18:48:18 10° N
STARLINK-1024 4.0 18:40:54 10° WSW 18:44:59 60° NNW 18:47:44 20° NE
STARLINK-1046 4.1 18:42:48 10° SSW 18:46:40 39° SE 18:47:57 31° E
Cosmos 1933 Rocket 3.5 18:42:24 10° S 18:46:50 89° WNW 18:51:14 10° N
Cosmos 2297 Rocket 3.9 18:43:55 10° N 18:47:07 15° NE 18:47:52 15° NE
Meteor 1-20 Rocket 4.1 18:45:58 10° S 18:51:23 71° E 18:56:55 10° NNE
Cosmos 2285 Rocket 4.2 18:45:02 10° NNW 18:51:25 75° WSW 18:57:47 10° SSE
STARLINK-1039 4.0 18:47:41 10° SSW 18:51:36 43° SE 18:52:43 34° E
STARLINK-1027 4.4 18:48:45 10° WSW 18:52:53 49° NNW 18:55:27 21° NE
STARLINK-1032 4.2 18:50:54 10° WSW 18:54:57 53° NNW 18:57:17 23° NE
Meteor 1-18 Rocket 4.3 18:49:31 10° N 18:55:24 61° ENE 19:01:08 10° SSE
STARLINK-1045 3.9 18:52:36 10° SSW 18:56:35 47° SE 18:57:32 39° E
Cosmos 1943 Rocket 3.7 18:51:44 10° WSW 18:56:48 35° NW 19:01:52 10° N
Cosmos 405 2.9 18:53:36 10° N 18:57:07 59° ENE 18:58:22 35° SE
COSMOS 2487 2.2 18:54:37 10° NNW 18:58:05 78° ENE 18:59:29 33° SSE
MOS 1 4.3 18:52:43 10° SSE 18:58:16 60° ENE 19:03:50 10° N
ADEOS Rocket 3.7 18:50:32 10° NNE 18:58:21 81° WNW 19:05:58 10° SSW
GPS 2-04 Rocket1 4.3 18:55:07 10° SW 18:58:26 23° S 18:59:25 21° SSE
CZ-2C R/B 3.5 18:53:38 11° SE 18:59:01 50° ENE 19:04:31 10° N
Cosmos 2034 Rocket 4.1 18:53:44 10° SSE 18:59:37 49° E 19:05:30 10° NNE
STARLINK-1011 4.3 18:55:55 10° WSW 18:59:56 49° NNW 19:02:03 25° NE
Cosmos 468 Rocket 4.0 18:55:55 10° S 19:01:04 57° ESE 19:06:17 10° NNE
STARLINK-1050 3.7 18:57:34 10° SW 19:01:37 53° SE 19:02:26 44° E
Lacrosse 5 rocket 3.4 18:59:24 10° NW 19:02:36 18° N 19:04:00 16° NNE
Okean 1 3.2 18:59:00 10° N 19:02:59 60° E 19:04:38 32° SSE
Timation 2 Rocket 4.3 18:56:17 10° NNW 19:03:05 57° ENE 19:07:09 25° SE
Cosmos 1340 4.3 19:00:14 10° SW 19:03:43 35° WNW 19:07:13 10° N
STARLINK-1036 4.4 19:00:57 10° W 19:04:57 47° NNW 19:06:51 27° NE
Cosmos 2227 Rocket 3.8 19:02:11 10° N 19:05:52 18° NE 19:05:52 18° NE
BREEZE-M DEB (TANK) 3.4 19:03:44 10° WNW 19:06:05 39° NNE 19:06:05 39° NNE
HJ-1C 4.1 19:02:58 10° S 19:06:12 53° W 19:09:27 10° NNW
STARLINK-1055 3.6 19:02:30 10° SW 19:06:33 58° SE 19:07:12 51° E
SPOT 3 Rocket 4.0 19:05:25 35° E 19:06:37 40° ENE 19:11:28 10° N
Meteor 1-14 Rocket 4.1 19:04:28 10° S 19:09:56 67° E 19:15:28 10° NNE
STARLINK-1044 4.5 19:05:58 10° W 19:09:57 44° NNW 19:11:37 28° NNE
Meteor 2-11 Rocket 4.3 19:04:37 10° S 19:10:43 80° E 19:16:49 10° N
STARLINK-1022 3.5 19:07:27 10° SW 19:11:32 63° SE 19:12:00 58° ESE
Gbstr 26 Del rocket 2.9 19:09:11 10° SW 19:13:16 79° SE 19:14:28 49° ENE
Cosmos 1898 Rocket 3.3 19:09:17 10° NNW 19:14:28 75° ENE 19:17:01 31° SSE
STARLINK-1042 3.5 19:12:22 10° SW 19:16:29 69° SE 19:16:45 66° ESE
STARLINK-1056 3.4 19:17:20 10° SW 19:21:28 75° SE 19:21:33 74° SE
Cosmos 1092 Rocket 4.2 19:17:37 10° N 19:23:44 47° ENE 19:24:43 43° ESE
USA 234 4.3 19:21:54 24° NE 19:24:34 33° NNE 19:30:15 10° NW
STARLINK-1054 3.5 19:22:18 10° SW 19:26:20 80° S 19:26:20 80° S
Cosmos 1763 Rocket 3.3 19:21:19 10° SSW 19:26:30 77° ESE 19:31:48 10° NNE
Cosmos 1656 Rocket 4.5 19:22:03 10° SW 19:27:24 51° WNW 19:32:53 10° NNE
Cosmos 1570 Rocket 3.9 19:24:51 10° S 19:29:59 61° ESE 19:30:09 60° E
Cosmos 2219 4.0 19:25:09 10° N 19:29:58 35° NE 19:29:58 35° NE
Meteor 2-4 Rocket 3.8 19:25:10 10° N 19:31:02 61° ENE 19:32:13 51° ESE
Meteor 1-19 Rocket 4.2 19:25:13 10° N 19:31:03 88° W 19:35:17 19° S
STARLINK-1062 3.6 19:27:17 10° SW 19:31:07 76° SW 19:31:07 76° SW
Resurs 01 Rocket 3.5 19:38:52 19° NNE 19:38:52 19° NNE 19:40:19 10° N
STARLINK-1053 3.8 19:32:14 10° SW 19:35:53 68° WSW 19:35:53 68° WSW
Cosmos 858 Rocket 4.3 19:32:55 10° NNW 19:38:11 88° ENE 19:39:03 63° SSE
STARLINK-1061 4.0 19:37:13 10° WSW 19:40:40 60° WSW 19:40:40 60° WSW
Ariane Rocket 4.2 19:38:30 10° SSW 19:43:17 41° W 19:48:06 10° NNW
Cosmos 220 Rocket 4.4 19:40:24 10° SSW 19:44:02 59° SW 19:44:02 59° SW
SL-08 RB Rocket 3.9 19:45:57 65° NNW 19:45:57 65° NNW 19:49:48 10° NNW
SJ-6B 3.8 19:46:43 41° NW 19:46:43 41° NW 19:49:26 10° NNW
STARLINK-1067 4.3 19:42:12 10° WSW 19:45:26 52° WSW 19:45:26 52° WSW
Okean 1-7 4.4 19:43:14 10° NNW 19:47:15 38° W 19:51:15 10° SSW
Lacrosse 5 2.2 19:43:33 10° SW 19:47:38 56° SSW 19:47:38 56° SSW
MetOp-A 4.0 19:50:10 74° NE 19:50:10 74° NE 19:55:16 10° N
ARGOS Delta rocket 3.9 19:51:19 63° NW 19:51:19 63° NW 19:55:16 10° NNW
CENTAUR R/B 3.9 19:46:46 10° NNW 19:53:47 35° NE 19:54:46 34° NE
Meteor 1-13 Rocket 4.4 19:54:17 10° N 19:59:12 60° NNE 19:59:12 60° NNE
SJ 16-02 2.5 19:56:27 10° NW 20:00:33 39° WSW 20:00:55 38° WSW
H-2A R/B 3.3 19:57:51 10° SSW 20:02:55 42° W 20:08:04 10° NNW
ARGOS 4.0 20:01:41 21° SSW 20:05:05 47° W 20:10:20 10° NNW
ATLAS 3B R/B 4.0 20:00:02 10° NNW 20:05:09 24° NNE 20:05:09 24° NNE
Cosmos 1937 Rocket 4.1 20:03:07 10° NNW 20:08:13 52° WSW 20:08:35 51° WSW
Cosmos 2026 Rocket 4.5 20:24:55 10° N 20:29:34 53° NNW 20:29:34 53° NNW
USA 238 DEB 4.0 20:24:30 10° NW 20:30:43 65° N 20:30:43 65° N
USA 238 4.0 20:24:36 10° NW 20:30:48 64° N 20:30:48 64° N
Cosmos 2297 Rocket 3.4 20:26:32 10° NNW 20:29:41 34° NNW 20:29:41 34° NNW
Lacrosse 5 rocket 4.2 20:38:29 10° NW 20:39:39 17° NNW 20:39:39 17° NNW
Cosmos 2227 Rocket 3.8 20:45:07 10° NNW 20:47:42 28° NNW 20:47:42 28° NNW
BREEZE-M DEB (TANK) 4.4 20:45:38 10° WNW 20:56:33 49° NW 20:56:33 49° NW
USA 234 4.3 21:09:15 39° NNW 21:09:15 39° NNW 21:13:18 10° NW
CENTAUR R/B 4.1 21:37:17 10° NW 21:41:57 41° NW 21:41:57 41° NW
